Terminal Aerodrome Forecast
Issued by NWS Knoxville/Tri Cities, TN

Home | Current Version | Previous Version | Text Only | Print | Product List | Glossary On
Versions: 1 2 3 4 5 6 7 8 9 10 11 12 13 14 15 16 17 18 19 20 21 22 23 24 25 26 27
000
FTUS44 KMRX 191123
TAFCHA
TAF
KCHA 191123Z 1912/2012 VRB03KT P6SM SCT040 BKN250
     FM191600 14005KT P6SM SCT050 SCT250
     FM200100 VRB02KT P6SM SCT250=

USA.gov is the U.S. government's official web portal to all federal, state and local government web resources and services.